Voltar ao catálogo

STARONE C4

AtivoComunicaçõesGEO
NORAD 40733·PAYLOAD·🇧🇷 Brazil

Lançado Jul 15, 2015 de Guiana Space Centre

Loading…

TLE

AtualizadoSource: Space-Track

Época: Sep 14, 2026, 10:02 UTC

1 40733U 15034B   26257.41869113 -.00000273  00000-0  00000-0 0  9998
2 40733   0.0430  18.8553 0000923 137.2437 278.0370  1.00271984 40909

Acompanhe STARONE C4 em tempo real com AllMySat

Download on the App Store